Showing default

GRAVITAS, 68495

Orbit data source: Space-Track

GRAVITAS, 68495 is an American payload satellite in SSO that was launched on Mon, 30 Mar 2026 UTC via an FALCON 9 launch vehicle from the Air Force Western Test Range (AFWTR). Payload-class satellites include a variety of spacecraft equipped with specific instruments for various scientific and technological missions. These include communications satellites like Starlink; space stations such as the ISS; scientific satellites like the Hubble; Earth observation satellites from companies like Planet Labs, Umbra, and HawkEye 360; GPS; miniature CubeSats for education and research; and military/defense satellites.

Loading next visibility...
Identifier
68495, 2026-067CH
Orbit
SSO
Country
Flag of USUS
Related business
Manufacturer
K2SP
Mission
Operational spacecraft
Bus & Motor
GRAVITAS, Unknown motor
Mass
2,000 kg wet, 1,800 kg dry
Launch date (UTC)
2026-03-30 (3 months ago)
Launch vehicle
FALCON 9
Launch site
Air Force Western Test Range (AFWTR)
Object type
Payload
Rocket body
Debris
Shape & HBR
Unknown shape, 14.5 m
Radar Cross Section
Large (>1 m²)

Expand to show TLE details & history
Last TLE update: 6 days ago

TLE from 6 days ago
0 GRAVITAS
1 68495U 26067CH  26167.00003472 -.00057108  00000-0 -10611-1 0  9994
2 68495  97.7615 123.2245 0003779  40.0776 261.6250 14.65561586  4832
Epoch: 2026-06-16T00:00Z
TLE epoch observation values (Epoch: 2026-06-16T00:00:02.999Z)
Latitude
-57.72127°
Longitude
-128.6731°
Altitude
698.017 km
Speed
7.506 km/s
True Right ascension
09h 02m 28s
True Declination
-57° 33' 52"
Sunlit
Object was in daylight at epoch
Visualization orbit readout
Latitude
Unknown
Longitude
Unknown
Altitude
Unknown
Speed
Unknown
Apparent Right ascension
Unknown
Apparent Declination
Unknown
Sunlit
N/A
Visualization observer readout
Local Sidereal Time
15:17:06
Azimuth
Unknown
Elevation
Unknown
Doppler factor
Unknown
Orbital elements
Apogee altitude
674.991 km
Perigee altitude
669.663 km
Semi-major axis
7,050.464 km
Eccentricity
0.00038
Inclination
97.7615°
RAAN
123.2245°
Arg. of periapsis
40.0776°
True anomaly
261.58216°
Mean anomaly
261.625°
Eccentric anomaly
261.60358°
Mean motion
3.6662 °/min
Orbital period
98.19 mins
BSTAR
-0.010611
Loading maneuver chart data...
Computing Atmospheric mass density...
Loading historical data...
Loading historical data...
Loading historical data...
Loading historical data...
Loading historical data...
Loading historical data...
Loading historical data...

Documentation

Showing up to 5 results
|